This demonstration page uses our WeatherBlox Daily Observations layout. Learn more.

Left ArrowRight Arrow

Hourly Observations for July 2, 2018

Temp ( °F °C ) Dew Point ( °F °C ) Humidity (%) Winds ( mph kmh ) Pressure ( in mb ) Visibility ( mi km ) Precip ( " mm )
12:22 am 00:22 Mostly Cloudy 59 15 41 5 51 51 WNW 9 15 29.83 1010 10 16 0.00 0.00
12:53 am 00:53 Mostly Clear 57 13.9 42 5.6 58 58 NW 8 13 29.84 1011 10 16 0.00 0.00
1:53 am 01:53 Partly Cloudy 50 10 43 6.1 77 77 S 6 9 29.85 1011 10 16 0.00 0.00
2:53 am 02:53 Mostly Cloudy 51 10.6 44 6.7 77 77 S 6 9 29.84 1011 10 16 0.00 0.00
3:53 am 03:53 Clear 53 11.7 45 7.2 74 74 W 3 6 29.83 1010 10 16 0.00 0.00
4:53 am 04:53 Mostly Cloudy 54 12.2 44 6.7 69 69 SW 6 9 29.83 1010 10 16 0.00 0.00
5:53 am 05:53 Mostly Cloudy 54 12.2 45 7.2 72 72 SW 9 15 29.83 1010 10 16 0.00 0.00
6:53 am 06:53 Mostly Cloudy 58 14.4 44 6.7 60 60 SW 9 15 29.81 1010 10 16 0.00 0.00
7:53 am 07:53 Mostly Cloudy 59 15 45 7.2 60 60 SW 15 24 29.81 1009 10 16 0.00 0.00
8:53 am 08:53 Sunny 65 18.3 41 5 42 42 SW 14 22 29.79 1009 10 16 0.00 0.00
9:53 am 09:53 Mostly Sunny 68 20 38 3.3 33 33 SW 14 22 29.79 1009 10 16 0.00 0.00
10:53 am 10:53 Mostly Cloudy 71 21.7 39 3.9 31 31 WNW 8 13 29.77 1008 10 16 0.00 0.00
11:53 am 11:53 Mostly Sunny 72 22.2 39 3.9 30 30 W 7 11 29.77 1008 10 16 0.00 0.00
12:53 pm 12:53 Cloudy with Light Rain 70 21.1 42 5.6 37 37 Calm 29.77 1008 10 16 0.00 0.03
1:53 pm 13:53 Mostly Sunny 72 22.2 43 6.1 35 35 WSW 6 9 29.76 1008 10 16 0.01 0.25
2:38 pm 14:38 Mostly Cloudy 73 23 36 2 25 25 W 16 26 29.62 1003 10 16 0.00 0.00
2:53 pm 14:53 Cloudy 74 23.3 36 2.2 25 25 W 13 20 29.75 1007 10 16 0.00 0.00
3:53 pm 15:53 Partly Cloudy 77 25 36 2.2 23 23 W 20 31 29.74 1007 10 16 0.00 0.00
4:53 pm 16:53 Partly Cloudy 75 23.9 34 1.1 22 22 W 18 30 29.75 1008 10 16 0.00 0.00
5:53 pm 17:53 Mostly Cloudy 70 21.1 38 3.3 31 31 NNW 28 44 29.78 1008 10 16 0.00 0.00
6:53 pm 18:53 Partly Cloudy 69 20.6 42 5.6 38 38 NNW 20 31 29.79 1009 10 16 0.00 0.00
7:53 pm 19:53 Sunny 67 19.4 38 3.3 35 35 NNW 20 31 29.82 1010 10 16 0.00 0.00
8:53 pm 20:53 Mostly Sunny 63 17.2 39 3.9 41 41 N 6 9 29.86 1011 10 16 0.00 0.00
9:53 pm 21:53 Partly Cloudy 58 14.4 40 4.4 51 51 N 6 9 29.89 1012 10 16 0.00 0.00
10:53 pm 22:53 Clear 54 12.2 41 5 62 62 NNW 5 7 29.90 1013 10 16 0.00 0.00
11:53 pm 23:53 Clear 50 10 43 6.1 77 77 Calm 29.91 1013 10 16 0.00 0.00

Powered by AerisWeather